TimeCDT,TemperatureF,Dew PointF,Humidity,Sea Level PressureIn,VisibilityMPH,Wind Direction,Wind SpeedMPH,Gust SpeedMPH,PrecipitationIn,Events,Conditions,WindDirDegrees,DateUTC
12:44 AM,75.2,71.6,89,29.89,2.5,SW,13.8,-,0.18,Rain,Rain,220,2012-09-02 05:44:00
12:51 AM,75.2,71.6,89,29.89,10.0,SSW,11.5,-,0.18,Rain,Light Rain,210,2012-09-02 05:51:00
12:53 AM,75.0,72.0,90,29.88,10.0,SW,10.4,-,0.18,Rain,Light Rain,220,2012-09-02 05:53:00
1:53 AM,75.0,72.0,90,29.86,10.0,WSW,8.1,-,0.00,,Overcast,240,2012-09-02 06:53:00
2:53 AM,75.2,71.6,89,29.87,10.0,SW,8.1,-,N/A,,Overcast,220,2012-09-02 07:53:00
3:53 AM,75.0,72.0,90,29.86,10.0,SSW,8.1,-,N/A,,Clear,210,2012-09-02 08:53:00
4:53 AM,75.0,72.0,90,29.85,10.0,SW,10.4,-,N/A,,Mostly Cloudy,220,2012-09-02 09:53:00
5:53 AM,75.0,72.0,90,29.86,10.0,WSW,9.2,-,N/A,,Mostly Cloudy,240,2012-09-02 10:53:00
6:53 AM,75.0,72.0,90,29.87,10.0,WSW,8.1,-,N/A,,Mostly Cloudy,250,2012-09-02 11:53:00
7:53 AM,75.9,72.0,87,29.89,10.0,West,6.9,-,N/A,,Overcast,270,2012-09-02 12:53:00
8:53 AM,77.0,70.0,79,29.88,10.0,West,10.4,-,N/A,,Clear,270,2012-09-02 13:53:00
9:53 AM,78.1,69.1,74,29.90,10.0,West,10.4,-,N/A,,Overcast,260,2012-09-02 14:53:00
10:15 AM,77.0,69.8,78,29.91,10.0,West,11.5,-,N/A,,Overcast,270,2012-09-02 15:15:00
10:32 AM,78.8,69.8,74,29.91,10.0,Variable,6.9,-,N/A,,Overcast,0,2012-09-02 15:32:00
10:53 AM,80.1,71.1,74,29.90,10.0,West,8.1,-,N/A,,Mostly Cloudy,270,2012-09-02 15:53:00
11:39 AM,82.4,71.6,70,29.90,10.0,West,9.2,-,N/A,,Mostly Cloudy,260,2012-09-02 16:39:00
11:53 AM,82.0,72.0,71,29.89,10.0,West,9.2,-,N/A,,Mostly Cloudy,270,2012-09-02 16:53:00
12:42 PM,84.2,71.6,66,29.89,10.0,WSW,8.1,-,N/A,,Mostly Cloudy,240,2012-09-02 17:42:00
12:53 PM,84.9,72.0,65,29.88,10.0,West,8.1,16.1,N/A,,Mostly Cloudy,270,2012-09-02 17:53:00
1:53 PM,87.1,72.0,61,29.86,10.0,WSW,15.0,-,N/A,,Overcast,240,2012-09-02 18:53:00
2:53 PM,89.1,72.0,57,29.83,10.0,West,10.4,18.4,N/A,,Mostly Cloudy,270,2012-09-02 19:53:00
3:53 PM,89.1,72.0,57,29.82,10.0,West,9.2,-,N/A,,Mostly Cloudy,270,2012-09-02 20:53:00
4:53 PM,91.0,72.0,53,29.82,10.0,NW,8.1,-,N/A,,Partly Cloudy,310,2012-09-02 21:53:00
5:53 PM,91.0,72.0,53,29.81,10.0,NNW,6.9,-,N/A,,Clear,340,2012-09-02 22:53:00
6:53 PM,88.0,72.0,59,29.81,10.0,NNW,4.6,-,N/A,,Clear,330,2012-09-02 23:53:00
7:53 PM,84.0,72.0,67,29.81,10.0,North,6.9,-,N/A,,Clear,10,2012-09-03 00:53:00
8:53 PM,82.0,71.1,69,29.83,10.0,North,4.6,-,N/A,,Clear,10,2012-09-03 01:53:00
9:53 PM,79.0,71.1,77,29.85,10.0,NNE,3.5,-,N/A,,Clear,30,2012-09-03 02:53:00
10:53 PM,78.1,71.1,79,29.86,10.0,Calm,Calm,-,N/A,,Clear,0,2012-09-03 03:53:00
11:53 PM,75.0,71.1,87,29.86,10.0,Calm,Calm,-,N/A,,Clear,0,2012-09-03 04:53:00